Regional Weather Roundup
Issued by NWS

Home | Current Version | Previous Version | Text Only | Print | Product List | Glossary On
Versions: 1 2 3 4 5 6 7 8 9 10 11 12 13 14 15 16 17 18 19 20 21 22 23 24 25 26 27 28 29 30 31 32 33 34 35 36 37 38 39 40 41 42 43 44 45 46 47 48 49 50
000
ASUS44 KFWD 110415
RWRTX
NORTH TEXAS HOURLY WEATHER ROUNDUP
NATIONAL WEATHER SERVICE FORT WORTH TX
1000 PM CST WED FEB 10 2016

NOTE: "FAIR" INDICATES FEW OR NO CLOUDS BELOW 12,000 FEET WITH NO
SIGNIFICANT WEATHER AND/OR OBSTRUCTIONS TO VISIBILITY.

TXZ118-119-110500-
DALLAS/FORT WORTH METROPLEX

CITY           SKY/WX    TMP DP  RH WIND       PRES   REMARKS
DFW AIRPORT    PTCLDY    57  34  41 S12       30.05S
DALLAS LOVE    PTCLDY    60  34  37 S6        30.06F
FTW MEACHAM    CLEAR     60  33  36 S10       30.06S
DAL-EXECUTIVE  CLEAR     61  34  36 S9        30.06S
FTW-ALLIANCE   CLEAR     60  32  34 S8        30.04F
FTW-NAS-JRB    CLEAR     56  32  40 S7        30.06F
FTW-SPINKS     CLEAR     58  35  40 S10       30.09S
ARLINGTON        N/A     60  34  37 S7        30.07S
GRAND PRAIRIE  CLEAR     60  33  36 S10       30.08F
ADDISON        CLEAR     64  37  36 S10G16    30.07F
MESQUITE       CLEAR     56  35  44 S12       30.08S
LANCASTER      CLEAR     56  33  40 S7        30.09F
$$

TXZ091>094-102>105-117-120-121-131>134-110500-
NORTH CENTRAL TEXAS

CITY           SKY/WX    TMP DP  RH WIND       PRES   REMARKS
SHRMAN/DENISON CLEAR     63  31  30 S16G22    30.02F
GAINESVILLE    CLEAR     55  31  41 SW6       30.04F
BOWIE          CLEAR     55  28  35 S5        30.02F
BRIDGEPORT     CLEAR     59  32  36 SW7       30.05F
DECATUR        CLEAR     63  27  25 S9        30.04S
DENTON         CLEAR     55  33  43 S8        30.04S
MCKINNEY       CLEAR     51  36  56 S9        30.04F
GREENVILLE     CLEAR     59  34  38 SW17      30.07S
ROCKWALL       CLEAR     57  37  46 SW12      30.06S
TERRELL        CLEAR     55  36  48 S9        30.08F
WAXAHACHIE     CLEAR     55  37  51 S9        30.10S
CLEBURNE       CLEAR     54  34  47 CALM      30.10S
GRANBURY       CLEAR     51  34  51 SE3       30.09S
$$

TXZ083>090-098>101-113>116-127>130-139>142-154-155-110500-
WESTERN NORTH TEXAS

CITY           SKY/WX    TMP DP  RH WIND       PRES   REMARKS
WICHITA FALLS  CLEAR     59  27  29 SW16      29.98F
WF-KICKAPOO    CLEAR     63  25  23 SW10G16   30.00F
VERNON         CLEAR     55  21  26 SW10      30.00S
ABILENE        CLEAR     54  25  32 S9        30.11S
ABILENE-DYESS  CLEAR     51  24  35 S7        30.10S
BRECKENRIDGE   CLEAR     57  25  29 SW9       30.08S
GRAHAM         CLEAR     57  30  35 S5        30.04S
MINERAL WELLS  CLEAR     53  28  38 SE9       30.05S
STEPHENVILLE   CLEAR     54  29  38 S5        30.12S
COMANCHE       CLEAR     65  28  24 SW15G21   30.11S
BROWNWOOD      CLEAR     57  25  28 SW9       30.13S
COLEMAN        CLEAR     62  24  24 SW13      30.13F
$$

TXZ143>147-156>162-174-175-110500-
CENTRAL TEXAS

CITY           SKY/WX    TMP DP  RH WIND       PRES   REMARKS
WACO           CLEAR     59  34  39 S13       30.11F
WACO-TSTC      CLEAR     55  36  47 S9        30.12F
WACO-MCGREGOR  CLEAR     58  35  42 S9        30.12F
HILLSBORO      CLEAR     55  34  45 S9        30.10F
CORSICANA      CLEAR     59  35  40 S10       30.12S
MEXIA          CLEAR     55  36  48 S10G16    30.12S
HEARNE         CLEAR     54  36  51 SE6       30.18S
CAMERON        CLEAR     58  36  43 S12       30.16S
TEMPLE         CLEAR     51  34  52 S10       30.15S
KILLEEN        CLEAR     61  30  31 SW14      30.13
KILLEEN-SKYLRK CLEAR     59  34  39 SW6       30.15S
FORT HOOD      CLEAR     59  33  37 SW7       30.13S
GATESVILLE     CLEAR     63  32  31 SW13      30.14F
HAMILTON       CLEAR     53  33  47 SW9       30.13S
LAMPASAS       CLEAR     60  33  35 SW7       30.14F
$$

TXZ095>097-106>112-122>126-135>138-148>153-164>167-110500-
EAST TEXAS

CITY           SKY/WX    TMP DP  RH WIND       PRES   REMARKS
PARIS          CLEAR     54  34  47 SW14      30.03F
SULPHUR SPRNGS CLEAR     58  35  42 SW15      30.07F
MOUNT PLEASANT PTCLDY    55  34  44 S9        30.07F
GILMER           N/A    N/A N/A N/A MISG        N/A
MINEOLA        CLEAR     59  34  38 S9        30.09S
TYLER          CLEAR     58  34  40 S13       30.09F
LONGVIEW       CLEAR     56  35  45 SW12      30.09F
MARSHALL       CLEAR     53  32  45 S7        30.11F
ATHENS         CLEAR     54  34  47 S6        30.10F
PALESTINE      CLEAR     58  36  44 S7        30.15S
JACKSONVILLE   CLEAR     57  35  43 S9        30.14F
HENDERSON      CLEAR     56  34  43 S5        30.12F
CENTER         FAIR      57  34  41 S13G18    30.14S
NACOGDOCHES    CLEAR     52  36  54 S10       30.16S
LUFKIN         CLEAR     52  38  58 S10       30.18F
$$

SUPPLEMENTAL OBSERVATIONS (CENTRAL)

CITY           SKY/WX    TMP DP  RH WIND       PRES   REMARKS
LAKE TEXOMA      N/A     64  32  29 SW17        N/A
CADDO GRASSLND   N/A     57  36  44 S15         N/A
PAT MAYSE LAKE   N/A     59  34  38 S22         N/A
LAKE LIMESTONE   N/A     57  36  44 S10         N/A
MCGREGOR         N/A     50  32  50 SW5         N/A
TEMPLE           N/A     55  32  41 SW2         N/A
$$

SUPPLEMENTAL OBSERVATIONS (WEST)

CITY           SKY/WX    TMP DP  RH WIND       PRES   REMARKS
MILLERS CREEK    N/A     54  30  40 SW9         N/A
POSSUM KINGDOM   N/A     64  23  20 SW12        N/A
LBJ GRASSLAND    N/A     59  28  31 S7          N/A
GRANBURY         N/A     54  32  43 SE3         N/A
COMANCHE         N/A     64  25  22 SW16        N/A
HAMBY            N/A     54  25  32 S9          N/A
COLORADO BEND    N/A     61  28  29 W10         N/A
$$

SUPPLEMENTAL OBSERVATIONS (EAST)

CITY           SKY/WX    TMP DP  RH WIND       PRES   REMARKS
CLARKSVILLE      N/A     55  34  44 SW5         N/A
TEXARKANA        N/A     54  32  43 S2          N/A
LINDEN           N/A     55  32  41 SW5         N/A
CADDO LAKE       N/A     54  34  47 SW3         N/A
GILMER           N/A     57  32  38 SW9         N/A
HENDERSON        N/A     57  34  41 SW12        N/A
LUFKIN           N/A     54  37  54 MISG        N/A
S SABINE NF      N/A     50  36  57 S3          N/A
$$

SUPPLEMENTAL OBSERVATIONS ARE A COLLECTION OF AUTOMATED INSTRUMENTS
THAT ARE MAINTAINED BY A VARIETY OF FEDERAL AND STATE AGENCIES.
CERTAIN ELEMENTS...SUCH AS HUMIDITY VALUES AND SUSTAINED WIND
SPEEDS...MAY BE APPROXIMATED.




USA.gov is the U.S. government's official web portal to all federal, state and local government web resources and services.